Location: *
(13.2257°S, 48.7193°W)
Time: 10:28:00
(UTC+00:00)

EPKM - Pass Details

Date: 13 February 2026
Orbit: 286 x 16617 km, 25.8° (Epoch: 10 March)

Event Time Altitude Azimuth Distance (km) Brightness Sun altitude
Exits shadow 08:16:10 30° 333° (NNW) 552 2.0 -14.1°
Maximum altitude 08:16:51 43° 24° (NNE) 406 1.7 -13.9°
Drops below altitude 10° 08:18:53 11° 100° (E) 1,177 5.4 -13.5°
Sets 08:21:17 0° 108° (ESE) 2,424 7.7 -12.9°
